When you browse on this site, cookies collect data to enhance your experience and personalize the content and advertising you see.
Visit our Privacy Policy to learn more. By continuing to use the site, you agree to this use of cookies and data.
  • In Austria
  • List of Countries
  • For 7 days
  • Water Temperature
  • Satellite Maps
  • Weather Map
  • News
  • Weather Widgets
  • user-avatar
    Login

    Hourly Weather Khulna

    Today, 26 June, Wednesday

    Time Temperature Precipitation Wind Pressure Humidity
    00:00 +31°C° 0 mm 3 mps 752 mmHg 73%
    01:00 +31°C° 0 mm 3 mps 751 mmHg 75%
    02:00 +32°C° 0 mm 4 mps 751 mmHg 78%
    03:00 +32°C° 0 mm 5 mps 751 mmHg 81%
    04:00 +32°C° 0 mm 5 mps 751 mmHg 79%
    05:00 +32°C° 0 mm 5 mps 751 mmHg 77%
    06:00 +32°C° 0 mm 5 mps 751 mmHg 74%
    07:00 +34°C° 0 mm 5 mps 751 mmHg 70%
    08:00 +35°C° 0 mm 6 mps 752 mmHg 65%
    09:00 +36°C° 0 mm 6 mps 752 mmHg 61%
    10:00 +38°C° 0 mm 6 mps 751 mmHg 55%
    11:00 +40°C° 0 mm 5 mps 751 mmHg 50%
    12:00 +41°C° 0 mm 5 mps 751 mmHg 45%
    13:00 +41°C° 0 mm 5 mps 750 mmHg 44%
    14:00 +41°C° 0 mm 5 mps 749 mmHg 43%
    15:00 +42°C° 0 mm 6 mps 748 mmHg 42%
    16:00 +41°C° 0 mm 6 mps 748 mmHg 45%
    17:00 +40°C° 0 mm 6 mps 748 mmHg 49%
    18:00 +38°C° 0 mm 6 mps 748 mmHg 52%
    19:00 +36°C° 0 mm 6 mps 748 mmHg 58%
    20:00 +35°C° 0 mm 6 mps 749 mmHg 64%
    21:00 +34°C° 0 mm 6 mps 749 mmHg 69%
    22:00 +33°C° 0 mm 6 mps 749 mmHg 71%
    23:00 +33°C° 0 mm 6 mps 749 mmHg 73%

    Tomorrow, 27 June, Thursday

    Time Temperature Precipitation Wind Pressure Humidity
    00:00 +33°C° 0 mm 6 mps 749 mmHg 74%
    01:00 +33°C° 0 mm 6 mps 749 mmHg 75%
    02:00 +33°C° 0 mm 6 mps 748 mmHg 76%
    03:00 +33°C° 0 mm 6 mps 748 mmHg 77%
    04:00 +33°C° 0 mm 6 mps 748 mmHg 78%
    05:00 +32°C° 0 mm 6 mps 748 mmHg 78%
    06:00 +32°C° 0 mm 6 mps 748 mmHg 79%
    07:00 +34°C° 0 mm 6 mps 748 mmHg 72%
    08:00 +35°C° 0 mm 6 mps 748 mmHg 66%
    09:00 +38°C° 0 mm 6 mps 749 mmHg 59%
    10:00 +39°C° 0 mm 6 mps 748 mmHg 53%
    11:00 +41°C° 0 mm 6 mps 748 mmHg 47%
    12:00 +44°C° 0 mm 6 mps 747 mmHg 41%
    13:00 +42°C° 0 mm 6 mps 747 mmHg 43%
    14:00 +41°C° 0 mm 6 mps 746 mmHg 45%
    15:00 +41°C° 0 mm 6 mps 745 mmHg 46%
    16:00 +40°C° 0 mm 6 mps 745 mmHg 49%
    17:00 +40°C° 0 mm 7 mps 745 mmHg 52%
    18:00 +39°C° 0 mm 7 mps 745 mmHg 55%
    19:00 +38°C° 0 mm 7 mps 745 mmHg 62%
    20:00 +35°C° 0 mm 6 mps 746 mmHg 69%
    21:00 +34°C° 0 mm 5 mps 747 mmHg 75%
    22:00 +34°C° 0.1 mm 5 mps 747 mmHg 76%
    23:00 +34°C° 0.1 mm 4 mps 747 mmHg 77%

    Day after tomorrow, 28 June, Friday

    Time Temperature Precipitation Wind Pressure Humidity
    00:00 +34°C° 0.1 mm 4 mps 747 mmHg 77%
    01:00 +34°C° 0 mm 4 mps 747 mmHg 77%
    02:00 +33°C° 0 mm 5 mps 747 mmHg 77%
    03:00 +33°C° 0 mm 5 mps 746 mmHg 77%
    04:00 +33°C° 0 mm 5 mps 746 mmHg 77%
    05:00 +33°C° 0 mm 4 mps 746 mmHg 77%
    06:00 +33°C° 0 mm 4 mps 746 mmHg 78%
    07:00 +34°C° 0.3 mm 4 mps 747 mmHg 73%
    08:00 +35°C° 0.3 mm 3 mps 747 mmHg 67%
    09:00 +36°C° 0.3 mm 3 mps 747 mmHg 62%
    10:00 +36°C° 1.5 mm 3 mps 747 mmHg 62%
    11:00 +36°C° 1.5 mm 3 mps 747 mmHg 62%
    12:00 +36°C° 1.5 mm 3 mps 747 mmHg 61%
    13:00 +34°C° 10 mm 4 mps 746 mmHg 71%
    14:00 +32°C° 10 mm 4 mps 746 mmHg 80%
    15:00 +29°C° 10 mm 5 mps 745 mmHg 89%
    16:00 +29°C° 7.4 mm 5 mps 745 mmHg 86%
    17:00 +29°C° 7.4 mm 5 mps 745 mmHg 84%
    18:00 +29°C° 7.4 mm 4 mps 745 mmHg 81%
    19:00 +30°C° 0 mm 4 mps 745 mmHg 82%
    20:00 +30°C° 0 mm 4 mps 746 mmHg 83%
    21:00 +31°C° 0 mm 3 mps 746 mmHg 84%
    22:00 +31°C° 0 mm 3 mps 746 mmHg 85%
    23:00 +32°C° 0 mm 4 mps 746 mmHg 85%

    29 June, Saturday

    Time Temperature Precipitation Wind Pressure Humidity
    00:00 +32°C° 0 mm 4 mps 746 mmHg 85%
    01:00 +32°C° 0 mm 4 mps 746 mmHg 85%
    02:00 +31°C° 0 mm 3 mps 746 mmHg 86%
    03:00 +31°C° 0 mm 3 mps 745 mmHg 86%
    04:00 +31°C° 0 mm 3 mps 746 mmHg 85%
    05:00 +31°C° 0 mm 3 mps 746 mmHg 85%
    06:00 +31°C° 0 mm 3 mps 746 mmHg 85%
    07:00 +33°C° 0 mm 3 mps 746 mmHg 77%
    08:00 +35°C° 0 mm 3 mps 746 mmHg 70%
    09:00 +37°C° 0 mm 4 mps 747 mmHg 62%
    10:00 +38°C° 0 mm 3 mps 746 mmHg 57%
    11:00 +39°C° 0 mm 3 mps 746 mmHg 52%
    12:00 +42°C° 0 mm 3 mps 745 mmHg 46%
    13:00 +42°C° 0 mm 3 mps 745 mmHg 45%
    14:00 +43°C° 0 mm 3 mps 744 mmHg 43%
    15:00 +43°C° 0 mm 4 mps 744 mmHg 41%
    16:00 +41°C° 0 mm 4 mps 744 mmHg 48%
    17:00 +39°C° 0 mm 5 mps 744 mmHg 55%
    18:00 +36°C° 0 mm 6 mps 744 mmHg 62%
    19:00 +35°C° 0.2 mm 6 mps 744 mmHg 67%
    20:00 +34°C° 0.2 mm 6 mps 745 mmHg 71%
    21:00 +33°C° 0.2 mm 5 mps 746 mmHg 75%
    22:00 +33°C° 0 mm 5 mps 746 mmHg 76%
    23:00 +33°C° 0 mm 5 mps 746 mmHg 77%

    30 June, Sunday

    Time Temperature Precipitation Wind Pressure Humidity
    00:00 +33°C° 0 mm 4 mps 746 mmHg 77%
    01:00 +33°C° 0 mm 4 mps 746 mmHg 78%
    02:00 +31°C° 0 mm 3 mps 746 mmHg 79%
    03:00 +31°C° 0 mm 3 mps 745 mmHg 80%
    04:00 +31°C° 0 mm 3 mps 745 mmHg 80%
    05:00 +31°C° 0 mm 2 mps 745 mmHg 79%
    06:00 +31°C° 0 mm 2 mps 745 mmHg 78%
    07:00 +32°C° 0.1 mm 2 mps 746 mmHg 72%
    08:00 +34°C° 0.1 mm 1 mps 746 mmHg 65%
    09:00 +35°C° 0.1 mm 1 mps 746 mmHg 58%
    10:00 +37°C° 0 mm 1 mps 746 mmHg 54%
    11:00 +39°C° 0 mm 2 mps 746 mmHg 50%
    12:00 +40°C° 0 mm 2 mps 746 mmHg 46%
    13:00 +40°C° 0.2 mm 3 mps 745 mmHg 48%
    14:00 +40°C° 0.2 mm 3 mps 745 mmHg 49%
    15:00 +40°C° 0.2 mm 4 mps 744 mmHg 51%
    16:00 +38°C° 0.1 mm 4 mps 744 mmHg 55%
    17:00 +39°C° 0.1 mm 5 mps 744 mmHg 58%
    18:00 +37°C° 0.1 mm 5 mps 744 mmHg 62%
    19:00 +35°C° 0.4 mm 5 mps 745 mmHg 67%
    20:00 +34°C° 0.4 mm 5 mps 746 mmHg 71%
    21:00 +33°C° 0.4 mm 5 mps 746 mmHg 76%
    22:00 +32°C° 0.2 mm 5 mps 746 mmHg 77%
    23:00 +32°C° 0.2 mm 4 mps 746 mmHg 78%

    1 July, Monday

    Time Temperature Precipitation Wind Pressure Humidity
    00:00 +32°C° 0.2 mm 4 mps 746 mmHg 79%
    01:00 +32°C° 0 mm 4 mps 746 mmHg 80%
    02:00 +31°C° 0 mm 3 mps 746 mmHg 81%
    03:00 +30°C° 0 mm 3 mps 746 mmHg 82%
    04:00 +30°C° 0 mm 3 mps 746 mmHg 82%
    05:00 +30°C° 0 mm 2 mps 746 mmHg 83%
    06:00 +30°C° 0 mm 2 mps 746 mmHg 83%
    07:00 +32°C° 0.1 mm 2 mps 747 mmHg 76%
    08:00 +34°C° 0.1 mm 2 mps 747 mmHg 70%
    09:00 +35°C° 0.1 mm 2 mps 747 mmHg 63%
    10:00 +36°C° 0.3 mm 2 mps 747 mmHg 59%
    11:00 +37°C° 0.3 mm 2 mps 746 mmHg 54%
    12:00 +39°C° 0.3 mm 3 mps 746 mmHg 50%
    13:00 +38°C° 0.2 mm 3 mps 746 mmHg 50%
    14:00 +38°C° 0.2 mm 3 mps 745 mmHg 51%
    15:00 +38°C° 0.2 mm 3 mps 745 mmHg 52%
    16:00 +37°C° 1.5 mm 3 mps 745 mmHg 57%
    17:00 +36°C° 1.5 mm 3 mps 745 mmHg 62%
    18:00 +35°C° 1.5 mm 4 mps 744 mmHg 67%
    19:00 +34°C° 0.3 mm 3 mps 745 mmHg 71%
    20:00 +33°C° 0.3 mm 3 mps 746 mmHg 74%
    21:00 +33°C° 0.3 mm 3 mps 746 mmHg 78%
    22:00 +31°C° 0 mm 2 mps 746 mmHg 80%
    23:00 +31°C° 0 mm 2 mps 746 mmHg 82%
    Show more